Regional Weather Roundup
Issued by NWS

Home | Current Version | Previous Version | Text Only | Print | Product List | Glossary On
Versions: 1 2 3 4 5 6 7 8 9 10 11 12 13 14 15 16 17 18 19 20 21 22 23 24 25 26 27 28 29 30 31 32 33 34 35 36 37 38 39 40 41 42 43 44 45 46 47 48 49 50
000
ASUS43 KDTX 211910
RWRMI
MICHIGAN HOURLY REGIONAL WEATHER ROUNDUP
NATIONAL WEATHER SERVICE DETROIT/PONTIAC MI
200 PM EST SUN JAN 21 2018

NOTE: "FAIR" INDICATES FEW OR NO CLOUDS BELOW 12,000 FEET WITH NO
SIGNIFICANT WEATHER AND/OR OBSTRUCTION TO VISIBILITY.

MIZ047>049-052>055-059>063-066>070-074>076-081>083-212000-
SOUTHEAST LOWER MICHIGAN

CITY           SKY/WX    TMP DP  RH WIND       PRES   REMARKS
ADRIAN         FOG       39  39 100 CALM      29.99F VSB<1/4
ALMA           CLOUDY    38  37  96 CALM      29.99F FOG
ANN ARBOR      CLOUDY    39  39 100 CALM      29.99F FOG
BAD AXE        CLOUDY    37  34  91 CALM      30.01F FOG
CARO           CLOUDY    37  34  91 CALM      30.00F FOG
DETROIT CITY   CLOUDY    41  38  89 CALM      30.01F FOG
DETROIT        CLOUDY    41  39  93 CALM      30.01F FOG
FLINT          CLOUDY    39  35  86 S6        30.00F WCI  35
GROSSE ILE     FOG       37  37  99 CALM      30.00F VSB<1/4
HILLSDALE      FOG       39  37  93 S5        29.96F VSB 1/4
HOWELL         CLOUDY    39  37  95 E3        29.98F FOG

CITY           SKY/WX    TMP DP  RH WIND       PRES   REMARKS
JACKSON        CLOUDY    40  37  89 SE3       29.97F FOG
LAMBERTVILLE   CLOUDY    42  41  97 CALM      29.99F FOG
LANSING        CLOUDY    39  37  92 E3        29.98F FOG
LAPEER         CLOUDY    40  35  84 CALM      30.00F
MASON          CLOUDY    39  36  87 CALM      29.97F FOG
MONROE         FOG       40  38  93 CALM      30.00F VSB 3/4
MT. CLEMENS    CLOUDY    40  37  89 CALM      30.01F FOG
PONTIAC        DRZL/FOG  38  38 100 CALM      29.99F VSB 1
PORT HOPE        N/A     33  32  96 SE6       30.01F WCI  28
PORT HURON     CLOUDY    37  36  93 CALM      30.02F FOG
TRI CITIES     CLOUDY    38  36  92 CALM      30.01F FOG
MIDLAND        CLOUDY    38  35  88 CALM      29.99F FOG
TROY           CLOUDY    41  38  89 CALM      30.02F FOG
SAGINAW HB     CLOUDY    36  34  93 CALM      30.00F FOG
$$
MIZ043>046-050>051-056>058-064>065-071>073-077>080-212000-
SOUTHWEST LOWER MICHIGAN

CITY           SKY/WX    TMP DP  RH WIND       PRES   REMARKS
BATTLE CREEK   CLOUDY    39  38  96 CALM      29.97F FOG
BENTON HARBOR  CLOUDY    41  39  93 SE5       29.94F FOG
BIG RAPIDS     CLOUDY    37  36  94 SE3       29.96F FOG
COLDWATER      FOG       40  40 100 SE3       29.96F VSB<1/4
FREMONT        CLOUDY    37  35  90 CALM      29.96F FOG
HOLLAND        CLOUDY    39  37  92 E3        29.95F FOG
GRAND RAPIDS   FOG       38  37  97 E3        29.96F VSB 1/2
IONIA          LGT RAIN  37  37  98 CALM      29.97F
KALAMAZOO      FOG       40  39  97 CALM      29.96F VSB 1/2
LUDINGTON      CLOUDY    40  37  90 SE3       29.95F FOG
MARSHALL       CLOUDY    39  38  98 CALM      29.97F FOG
MOUNT PLEASANT PTSUNNY   38  36  89 CALM      29.98F FOG
MUSKEGON       CLOUDY    39  35  86 E5        29.96F FOG
SOUTH HAVEN    CLOUDY    42  39  90 SE5       29.94F FOG
$$
MIZ016>042-212000-
NORTHERN LOWER MICHIGAN

CITY           SKY/WX    TMP DP  RH WIND       PRES   REMARKS
ALPENA         CLOUDY    40  33  76 E5        29.98F
BEAVER ISLAND  CLOUDY    40  33  77 CALM      29.96F
BELLAIRE       CLOUDY    43  36  74 CALM      29.97F
CADILLAC       PTSUNNY   38  36  92 CALM      29.94F FOG
CHARLEVOIX     CLOUDY    36  34  92 CALM      30.01F FOG
FRANKFORT      FAIR      42  35  77 S6        29.96F
GAYLORD        CLOUDY    42  31  64 S8        29.95S
GRAYLING       FAIR      41  32  69 S8        29.97F
HARBOR SPRINGS CLOUDY    37  32  81 SW3       29.98S
HOUGHTON LAKE  FAIR      40  32  73 CALM      29.97F
MANISTEE       PTSUNNY   40  36  86 E6        29.96F FOG
OSCODA         CLOUDY    34  32  92 S5        29.99F FOG     WCI  29
PELLSTON       CLOUDY    39  32  76 N3        29.98F
ROGERS CITY    CLOUDY    39  32  76 CALM      29.99F
TRAVERSE CITY  PTSUNNY   45  35  68 VRB3      29.96F
$$
MIZ007>008-015-212000-
EASTERN UPPER MICHIGAN

CITY           SKY/WX    TMP DP  RH WIND       PRES   REMARKS
KINROSS        PTSUNNY   38  32  79 SE7       29.98F WCI  33
MACKINAC ISLAN CLOUDY    36  32  85 CALM      29.98S
NEWBERRY       PTSUNNY   36  35  97 S3        29.96F
S. S. MARIE    FAIR      37  31  78 SE5       29.98F WCI  33
MUNISING         N/A     36  32  85 N9        29.96F WCI  29
$$
MIZ004>006-011>014-085-212000-
CENTRAL UPPER MICHIGAN

CITY           SKY/WX    TMP DP  RH WIND       PRES   REMARKS
MANISTIQUE     CLOUDY    36  34  93 CALM      29.96F FOG
ESCANABA       CLOUDY    37  30  75 NE3       29.96F
MENOMINEE      CLOUDY    39  32  76 E3        29.96F
SAWYER-GWINN   SUNNY     37  30  75 NE5       29.95S WCI  34
$$
MIZ001>003-009>011-084-212000-
WESTERN UPPER MICHIGAN

CITY           SKY/WX    TMP DP  RH WIND       PRES   REMARKS
IRON MOUNTAIN  CLOUDY    37  30  75 CALM      29.94F
HOUGHTON       CLOUDY    35  30  82 CALM      29.97S
COPPER HARBOR    N/A     33  31  92 E7        29.99F WCI  27
IRONWOOD       FAIR      36  29  75 CALM      29.96F
$$

ABBREVIATIONS USED IN REMARKS
   TC - TEMPERATURE IN CELSIUS
  WCI - WIND CHILL INDEX
   HX - HEAT INDEX
  VSB - VISIBILITY





USA.gov is the U.S. government's official web portal to all federal, state and local government web resources and services.